This is the latest recevied weather packets stored in our database for station/object N5PRN. If no packets are shown the sender has not sent any weather packets the latest 10 day(s).
| Time | Temp. | Humidity | Pressure | Rain* | Wind** | Luminosity | Snow |
|---|---|---|---|---|---|---|---|
| 1777988304 | 20° C | 91% | 1010.5 hPa | 0 mm | - | 86 W/m² | - |
| 1777988001 | 19.44° C | 91% | 1010.5 hPa | 0 mm | - | 75 W/m² | - |
| 1777987696 | 19.44° C | 91% | 1010.8 hPa | 0 mm | - | 67 W/m² | - |
| 1777987394 | 19.44° C | 90% | 1010.8 hPa | 0 mm | - | 87 W/m² | - |
| 1777987091 | 19.44° C | 91% | 1010.7 hPa | 0 mm | - | 79 W/m² | - |
| 1777986788 | 19.44° C | 91% | 1010.6 hPa | 0 mm | - | 64 W/m² | - |
| 1777986486 | 19.44° C | 90% | 1010.9 hPa | 0 mm | - | 54 W/m² | - |
| 1777986184 | 19.44° C | 90% | 1011 hPa | 0 mm | - | 58 W/m² | - |
| 1777985881 | 19.44° C | 91% | 1010.7 hPa | 0 mm | - | 69 W/m² | - |
| 1777985578 | 19.44° C | 90% | 1011 hPa | 0 mm | - | 60 W/m² | - |
| 1777985274 | 19.44° C | 90% | 1010.5 hPa | 0 mm | - | 52 W/m² | - |
| 1777984971 | 18.89° C | 90% | 1010.7 hPa | 0 mm | - | 60 W/m² | - |
| 1777984667 | 18.89° C | 90% | 1010.8 hPa | 0 mm | - | 42 W/m² | - |
| 1777984363 | 18.89° C | 90% | 1011 hPa | 0 mm | - | 39 W/m² | - |
| 1777984060 | 18.89° C | 90% | 1010.7 hPa | 0 mm | - | 52 W/m² | - |
| 1777983757 | 18.89° C | 90% | 1010.4 hPa | 0 mm | - | 27 W/m² | - |
| 1777983454 | 18.89° C | 90% | 1010.4 hPa | 0 mm | - | 29 W/m² | - |
| 1777983151 | 18.89° C | 90% | 1010.4 hPa | 0 mm | - | 40 W/m² | - |
| 1777982847 | 18.89° C | 90% | 1010.6 hPa | 0 mm | - | 16 W/m² | - |
| 1777982543 | 18.89° C | 89% | 1010.5 hPa | 0 mm | - | 11 W/m² | - |
| 1777982241 | 18.89° C | 89% | 1010.2 hPa | 0 mm | - | 11 W/m² | - |
| 1777981940 | 18.89° C | 89% | 1010 hPa | 0 mm | - | 9 W/m² | - |
| 1777981637 | 18.89° C | 89% | 1010.1 hPa | 0 mm | - | 6 W/m² | - |
| 1777981333 | 18.89° C | 89% | 1010 hPa | 0 mm | - | 4 W/m² | - |
| 1777981029 | 18.89° C | 89% | 1009.9 hPa | 0 mm | - | 2 W/m² | - |
* Rain latest hour (hover to see other rain measurements)
** Current wind speed in m/s (hover to see current wind gust speed)